TimeCST,TemperatureF,Dew PointF,Humidity,Sea Level PressureIn,VisibilityMPH,Wind Direction,Wind SpeedMPH,Gust SpeedMPH,PrecipitationIn,Events,Conditions,WindDirDegrees,DateUTC
10:36 AM,-9999,-9999,N/A,30.38,-9999.0,North,-9999.0,-,N/A,,Unknown,0,2014-01-03 16:36:00
10:55 AM,8.8,3.4,79,30.38,10.0,SSW,10.4,-,N/A,,Unknown,200,2014-01-03 16:55:00
11:15 AM,10.2,2.1,70,30.36,10.0,SSW,12.7,-,N/A,,Clear,200,2014-01-03 17:15:00
11:35 AM,10.9,1.4,65,30.34,10.0,South,11.5,-,N/A,,Scattered Clouds,170,2014-01-03 17:35:00
11:55 AM,11.7,0.1,60,30.32,10.0,South,13.8,-,N/A,,Mostly Cloudy,190,2014-01-03 17:55:00
12:15 PM,12.2,1.4,62,30.31,10.0,South,13.8,-,N/A,,Scattered Clouds,180,2014-01-03 18:15:00
12:35 PM,12.9,2.7,64,30.30,10.0,South,13.8,-,N/A,,Clear,180,2014-01-03 18:35:00
12:55 PM,13.1,3.7,66,30.27,10.0,South,16.1,-,N/A,,Scattered Clouds,180,2014-01-03 18:55:00
1:15 PM,14.0,5.0,67,30.26,10.0,South,16.1,-,N/A,,Scattered Clouds,180,2014-01-03 19:15:00
1:35 PM,14.2,5.7,69,30.25,10.0,South,15.0,-,N/A,,Mostly Cloudy,180,2014-01-03 19:35:00
1:55 PM,14.7,6.4,70,30.22,10.0,South,18.4,-,N/A,,Mostly Cloudy,180,2014-01-03 19:55:00
2:15 PM,15.3,7.3,71,30.22,10.0,South,19.6,-,N/A,,Mostly Cloudy,180,2014-01-03 20:15:00
2:35 PM,15.8,7.7,70,30.21,10.0,South,17.3,21.9,N/A,,Overcast,180,2014-01-03 20:35:00
2:55 PM,15.8,7.7,70,30.21,10.0,South,17.3,24.2,N/A,,Overcast,180,2014-01-03 20:55:00
3:15 PM,15.8,7.9,71,30.18,7.0,South,21.9,27.6,N/A,,Overcast,180,2014-01-03 21:15:00
3:35 PM,15.8,8.1,72,30.18,7.0,South,20.7,-,N/A,,Overcast,180,2014-01-03 21:35:00
3:55 PM,15.3,8.2,74,30.15,7.0,South,21.9,27.6,N/A,,Overcast,180,2014-01-03 21:55:00
4:15 PM,15.3,8.4,74,30.14,7.0,South,24.2,28.8,N/A,,Mostly Cloudy,180,2014-01-03 22:15:00
4:35 PM,14.9,8.4,76,30.15,7.0,South,19.6,25.3,N/A,,Scattered Clouds,190,2014-01-03 22:35:00
4:55 PM,14.9,8.2,75,30.14,10.0,South,20.7,27.6,N/A,,Clear,190,2014-01-03 22:55:00
5:15 PM,15.6,8.1,72,30.13,7.0,South,21.9,27.6,N/A,,Clear,190,2014-01-03 23:15:00
5:35 PM,15.4,8.1,73,30.12,7.0,South,21.9,29.9,N/A,,Clear,180,2014-01-03 23:35:00
5:55 PM,15.1,8.4,75,30.11,10.0,South,23.0,-,N/A,,Clear,190,2014-01-03 23:55:00
6:15 PM,14.9,8.6,76,30.10,7.0,South,18.4,27.6,N/A,,Clear,180,2014-01-04 00:15:00
6:35 PM,15.1,8.6,76,30.08,7.0,South,23.0,29.9,N/A,,Clear,180,2014-01-04 00:35:00
6:55 PM,15.3,9.1,77,30.07,7.0,South,25.3,31.1,N/A,,Clear,180,2014-01-04 00:55:00
7:15 PM,15.6,9.5,77,30.07,7.0,South,25.3,31.1,N/A,,Clear,180,2014-01-04 01:15:00
7:35 PM,16.0,9.7,76,30.06,7.0,South,21.9,28.8,N/A,,Clear,190,2014-01-04 01:35:00
7:55 PM,16.2,10.0,77,30.05,7.0,South,19.6,29.9,N/A,,Clear,180,2014-01-04 01:55:00
8:15 PM,16.3,10.2,77,30.03,7.0,South,21.9,27.6,N/A,,Clear,180,2014-01-04 02:15:00
8:35 PM,16.7,10.4,76,30.01,7.0,South,24.2,31.1,N/A,,Clear,180,2014-01-04 02:35:00
8:55 PM,17.2,10.9,76,30.00,5.0,South,20.7,32.2,N/A,,Haze,180,2014-01-04 02:55:00
9:15 PM,17.6,11.3,76,29.97,5.0,South,28.8,35.7,N/A,,Haze,180,2014-01-04 03:15:00
9:35 PM,18.1,12.0,77,29.97,5.0,South,26.5,36.8,N/A,Snow,Light Snow,190,2014-01-04 03:35:00
9:55 PM,18.1,12.0,77,29.96,5.0,South,28.8,35.7,N/A,,Haze,190,2014-01-04 03:55:00
10:15 PM,18.3,12.2,77,29.95,4.0,South,27.6,34.5,N/A,,Haze,190,2014-01-04 04:15:00
10:35 PM,18.5,12.6,78,29.94,4.0,South,26.5,35.7,N/A,Snow,Light Snow,190,2014-01-04 04:35:00
10:55 PM,18.5,12.6,78,29.94,4.0,South,24.2,38.0,N/A,Snow,Light Snow,190,2014-01-04 04:55:00
11:15 PM,18.5,12.2,76,29.93,10.0,South,25.3,31.1,N/A,,Clear,190,2014-01-04 05:15:00
11:35 PM,18.9,12.7,77,29.92,5.0,South,26.5,33.4,N/A,,Haze,190,2014-01-04 05:35:00
11:55 PM,19.2,12.9,76,29.92,5.0,SSW,24.2,36.8,N/A,,Haze,200,2014-01-04 05:55:00